KZ1X Weather Reports


Display with metric or nautical units.
time (UTC)temp
F
wind
direction
speed
MPH
gust
MPH
rain 1hr
in
rain 24hr
in
rain mn
in
humidity
%
barometer
mb
20260510173039 82 112 1.0 4.0 0.00 0.00 0.00 39 1015.3
20260510171536 82 8 1.0 6.0 0.00 0.00 0.00 40 1015.3
20260510170042 83 76 0.0 2.0 0.00 0.00 0.00 39 1015.3
20260510164603 83 0 0.0 1.0 0.00 0.00 0.00 42 1015.6
20260510163044 81 341 1.0 5.0 0.00 0.00 0.00 40 1015.7
20260510161537 82 344 1.0 5.0 0.00 0.00 0.00 46 1015.7
20260510160036 81 179 0.0 3.0 0.00 0.00 0.00 46 1015.7
20260510154542 79 0 1.0 4.0 0.00 0.00 0.00 48 1015.9
20260510153047 78 0 0.0 4.0 0.00 0.00 0.00 50 1016.1
20260510151541 77 129 0.0 3.0 0.00 0.00 0.00 52 1016.2
20260510150045 74 102 0.0 2.0 0.00 0.00 0.00 54 1016.2
20260510144546 73 103 0.0 2.0 0.00 0.00 0.00 71 1016.0
20260510143037 71 0 0.0 1.0 0.00 0.00 0.00 69 1016.1
20260510141537 70 0 0.0 2.0 0.00 0.00 0.00 74 1016.0
20260510140037 69 0 0.0 3.0 0.00 0.00 0.00 79 1016.1
20260510134550 68 0 0.0 4.0 0.00 0.00 0.00 80 1016.0
20260510133037 66 0 0.0 3.0 0.00 0.00 0.00 91 1016.0
20260510131537 63 0 0.0 0.0 0.00 0.00 0.00 98 1015.9
20260510130037 61 0 0.0 0.0 0.00 0.00 0.00 99 1015.7
20260510124541 60 0 0.0 0.0 0.00 0.00 0.00 99 1015.5
20260510123041 58 0 0.0 0.0 0.00 0.00 0.00 98 1015.3
20260510121540 57 0 0.0 0.0 0.00 0.00 0.00 98 1015.3
20260510120038 56 0 0.0 0.0 0.00 0.00 0.00 98 1015.1
20260510114537 56 0 0.0 0.0 0.00 0.00 0.00 98 1015.0
20260510113036 56 0 0.0 0.0 0.00 0.00 0.00 98 1014.7
20260510111541 56 0 0.0 0.0 0.00 0.00 0.00 98 1014.4
20260510110041 56 0 0.0 0.0 0.00 0.00 0.00 98 1014.3
20260510104544 56 0 0.0 0.0 0.00 0.00 0.00 97 1013.9
20260510103043 56 0 0.0 0.0 0.00 0.00 0.00 98 1013.8
20260510101537 56 0 0.0 0.0 0.00 0.00 0.00 97 1013.5
20260510100053 56 0 0.0 0.0 0.00 0.00 0.00 98 1013.2
20260510094545 57 0 0.0 0.0 0.00 0.00 0.00 97 1013.2
20260510093041 57 0 0.0 0.0 0.00 0.00 0.00 97 1013.0
20260510091537 57 0 0.0 0.0 0.00 0.00 0.00 97 1012.8
20260510090041 57 0 0.0 0.0 0.00 0.00 0.00 97 1012.7
20260510084548 57 0 0.0 0.0 0.00 0.00 0.00 97 1012.6
20260510083044 57 0 0.0 0.0 0.00 0.00 0.00 97 1012.5
20260510081541 58 0 0.0 0.0 0.00 0.00 0.00 97 1012.5
20260510080043 58 0 0.0 0.0 0.00 0.00 0.00 97 1012.3
20260510074537 58 0 0.0 0.0 0.00 0.00 0.00 97 1012.4
20260510073044 58 0 0.0 0.0 0.00 0.00 0.00 97 1012.3
20260510071545 58 0 0.0 0.0 0.00 0.00 0.00 97 1012.2
20260510070044 57 0 0.0 0.0 0.00 0.00 0.00 97 1012.4
20260510064601 58 0 0.0 0.0 0.00 0.00 0.00 97 1012.4
20260510063040 58 0 0.0 0.0 0.00 0.00 0.00 97 1012.1
20260510061539 59 0 0.0 0.0 0.00 0.00 0.00 97 1011.9
20260510060043 59 0 0.0 0.0 0.00 0.00 0.00 97 1012.2
20260510054537 59 0 0.0 0.0 0.00 0.00 0.00 97 1012.5
20260510053043 59 0 0.0 0.0 0.00 0.00 0.00 97 1012.4
20260510051552 59 0 0.0 0.0 0.00 0.00 0.00 97 1012.7
20260510050039 59 0 0.0 0.0 0.00 0.00 0.00 97 1012.8
20260510044540 59 0 0.0 0.0 0.00 0.00 0.00 97 1012.8
20260510043045 59 0 0.0 0.0 0.00 0.00 0.00 97 1012.9
20260510041605 59 0 0.0 0.0 0.00 0.00 0.00 96 1012.8
20260510040045 59 0 0.0 0.0 0.00 0.00 0.00 96 1012.8
20260510034541 59 0 0.0 0.0 0.00 0.00 0.00 96 1012.7
20260510033037 60 0 0.0 0.0 0.00 0.00 0.00 96 1012.6
20260510031537 60 0 0.0 0.0 0.00 0.00 0.00 96 1012.6
20260510030037 60 0 0.0 0.0 0.00 0.00 0.00 96 1012.5
20260510024549 60 0 0.0 0.0 0.00 0.00 0.00 95 1012.6
20260510023038 60 0 0.0 0.0 0.00 0.00 0.00 95 1012.5
20260510021537 61 0 0.0 0.0 0.00 0.00 0.00 94 1012.5
20260510020042 61 0 0.0 0.0 0.00 0.00 0.00 94 1012.3
20260510014540 62 0 0.0 0.0 0.00 0.00 0.00 93 1012.1
20260510013039 63 0 0.0 0.0 0.00 0.00 0.00 92 1011.8
20260510011539 63 0 0.0 0.0 0.00 0.00 0.00 91 1011.5
20260510010058 64 0 0.0 0.0 0.00 0.00 0.00 90 1011.2
20260510004543 65 0 0.0 0.0 0.00 0.00 0.00 88 1011.3
20260510003038 65 0 0.0 0.0 0.00 0.00 0.00 88 1011.2
20260510001537 66 0 0.0 0.0 0.00 0.00 0.00 86 1011.1
20260510000041 67 0 0.0 0.0 0.00 0.00 0.00 86 1010.9
20260509234554 67 0 0.0 0.0 0.00 0.00 0.00 85 1010.6
20260509233042 68 0 0.0 0.0 0.00 0.00 0.00 84 1010.5
20260509231538 69 0 0.0 0.0 0.00 0.00 0.00 83 1010.4
20260509230038 70 0 0.0 0.0 0.00 0.00 0.00 82 1010.5
20260509224536 70 0 0.0 0.0 0.00 0.00 0.00 80 1010.2
20260509223037 71 0 0.0 0.0 0.00 0.00 0.00 80 1010.2
20260509221600 71 0 0.0 0.0 0.00 0.00 0.00 79 1010.2
20260509220057 71 0 0.0 0.0 0.00 0.00 0.00 78 1010.3
20260509214543 71 0 0.0 0.0 0.00 0.00 0.00 78 1010.3
20260509213038 71 0 0.0 0.0 0.00 0.00 0.00 79 1010.2
20260509211537 71 0 0.0 1.0 0.00 0.00 0.00 79 1010.1
20260509210037 72 0 0.0 1.0 0.00 0.00 0.00 78 1010.1
20260509204537 72 141 0.0 1.0 0.00 0.00 0.00 76 1010.1
20260509203044 71 0 0.0 2.0 0.00 0.00 0.00 76 1010.2
20260509201541 73 251 0.0 2.0 0.00 0.00 0.00 75 1010.2
20260509200044 72 157 0.0 2.0 0.00 0.00 0.00 77 1010.3
20260509194538 71 0 0.0 0.0 0.00 0.00 0.00 75 1010.4
20260509193044 71 0 0.0 0.0 0.00 0.00 0.00 75 1010.7
20260509191548 71 0 0.0 1.0 0.00 0.00 0.00 76 1010.8
20260509190046 71 0 0.0 1.0 0.00 0.00 0.00 74 1010.9
20260509184540 72 216 0.0 3.0 0.00 0.00 0.00 73 1010.9
20260509183044 74 205 0.0 3.0 0.00 0.00 0.00 72 1010.7
20260509181545 73 0 0.0 3.0 0.00 0.00 0.00 71 1011.0
20260509180044 73 211 0.0 2.0 0.00 0.00 0.00 71 1011.1
20260509174541 72 0 0.0 3.0 0.00 0.00 0.00 69 1011.4